Weather History for Cheraw, SC

Change the Weather History Date:

Thursday, December 6, 2012

  Actual Average (KFLO) Record (KFLO)
Temperature  
Mean Temperature 50 °F 49 °F  
Max Temperature 55 °F 60 °F 81 °F (1998)
Min Temperature 44 °F 38 °F 23 °F (1987)
Degree Days  
Heating Degree Days 16 16  
Month to date heating degree days 92  
Since 1 July heating degree days 514  
Cooling Degree Days 0 0  
Month to date cooling degree days 0  
Year to date cooling degree days 2059  
Moisture  
Dew Point 41 °F    
Average Humidity 72    
Maximum Humidity 93    
Minimum Humidity 50    
Precipitation  
Precipitation 0.00 in 0.09 in 0.85 in (1983)
Month to date precipitation 0.54  
Year to date precipitation 40.44  
Sea Level Pressure  
Sea Level Pressure 30.23 in    
Wind  
Wind Speed 10 mph (NE)    
Max Wind Speed 22 mph    
Max Gust Speed 34 mph    
Visibility 10 miles    
Events      
T = Trace of Precipitation, MM = Missing Value Source: NWS Daily Summary

Daily Weather History Graph

Daily Weather History Graph

Search for Another Location

Airport:

Trip Planner

Search our weather history database for the weather conditions in past years. The results will help you decide how hot, cold, wet, or windy it might be!

Date:

Astronomy

Dec. 06, 2012 Rise Set
Actual Time 7:13 AM EST 5:08 PM EST
Civil Twilight 6:45 AM EST 5:36 PM EST
Nautical Twilight 6:14 AM EST 6:07 PM EST
Astronomical Twilight 5:43 AM EST 6:38 PM EST
Moon No Moon Rise 12:19 PM EST (12/6)
Length of Visible Light 10h 50m
Length of Day
9h 55m
Waning Gibbous, 49% of the Moon is Illuminated
Dec 6
Waning Gibbous
Dec 13
New
Dec 20
First Quarter
Dec 28
Full
Jan 4
Last Quarter

Hourly Weather History & Observations

Time (EST) Temp. Windchill Dew Point Humidity Pressure Visibility Wind Dir Wind Speed Gust Speed Precip Events Conditions
12:15 AM 55.4 °F - 48.2 °F 77% 30.19 in 10.0 mi NE 3.5 mph - N/A   Mostly Cloudy
12:35 AM 53.6 °F - 50.0 °F 88% 30.19 in 10.0 mi NNE 4.6 mph - N/A   Overcast
12:55 AM 53.6 °F - 50.0 °F 88% 30.18 in 10.0 mi NE 4.6 mph - N/A   Overcast
1:15 AM 53.6 °F - 48.2 °F 82% 30.18 in 10.0 mi NE 4.6 mph - N/A   Overcast
1:35 AM 53.6 °F - 48.2 °F 82% 30.19 in 10.0 mi NNE 4.6 mph - N/A   Overcast
1:55 AM 53.6 °F - 48.2 °F 82% 30.19 in 10.0 mi ENE 4.6 mph - N/A   Overcast
2:15 AM 53.6 °F - 48.2 °F 82% 30.19 in 10.0 mi NE 9.2 mph - N/A   Overcast
2:35 AM 53.6 °F - 50.0 °F 88% 30.20 in 10.0 mi ENE 9.2 mph - N/A   Overcast
2:55 AM 53.6 °F - 50.0 °F 88% 30.20 in 10.0 mi NE 8.1 mph - N/A   Overcast
3:15 AM 53.6 °F - 50.0 °F 88% 30.20 in 10.0 mi ENE 11.5 mph 18.4 mph N/A   Overcast
3:35 AM 53.6 °F - 50.0 °F 88% 30.20 in 10.0 mi NE 10.4 mph - N/A   Overcast
3:55 AM 53.6 °F - 48.2 °F 82% 30.20 in 10.0 mi NE 11.5 mph 20.7 mph N/A   Overcast
4:15 AM 51.8 °F - 48.2 °F 88% 30.20 in 10.0 mi NE 8.1 mph - N/A   Overcast
4:35 AM 51.8 °F - 48.2 °F 88% 30.19 in 10.0 mi ENE 9.2 mph - N/A   Overcast
4:55 AM 51.8 °F - 48.2 °F 88% 30.19 in 10.0 mi North 9.2 mph - N/A   Overcast
5:15 AM 51.8 °F - 48.2 °F 88% 30.20 in 10.0 mi North 10.4 mph - N/A   Overcast
5:35 AM 51.8 °F - 48.2 °F 88% 30.20 in 10.0 mi NNE 8.1 mph - N/A   Overcast
5:55 AM 50.0 °F - 46.4 °F 87% 30.21 in 10.0 mi NNE 11.5 mph - N/A   Overcast
6:15 AM 50.0 °F - 46.4 °F 87% 30.22 in 10.0 mi NE 11.5 mph - N/A   Overcast
6:35 AM 50.0 °F - 46.4 °F 87% 30.23 in 10.0 mi NNE 9.2 mph - N/A   Overcast
6:55 AM 48.2 °F - 46.4 °F 93% 30.24 in 10.0 mi NNE 13.8 mph 23.0 mph N/A   Overcast
7:15 AM 48.2 °F - 46.4 °F 93% 30.25 in 10.0 mi NNE 17.3 mph 21.9 mph N/A   Overcast
7:35 AM 48.2 °F - 46.4 °F 93% 30.25 in 10.0 mi NNE 17.3 mph 23.0 mph N/A   Overcast
7:55 AM 48.2 °F - 46.4 °F 93% 30.26 in 10.0 mi NE 18.4 mph 24.2 mph N/A   Overcast
8:15 AM 48.2 °F - 44.6 °F 87% 30.27 in 10.0 mi NE 21.9 mph 28.8 mph N/A   Mostly Cloudy
8:35 AM 48.2 °F - 42.8 °F 82% 30.28 in 10.0 mi ENE 17.3 mph 34.5 mph N/A   Mostly Cloudy
8:55 AM 48.2 °F - 41.0 °F 76% 30.28 in 10.0 mi NE 20.7 mph 32.2 mph N/A   Overcast
9:15 AM 48.2 °F - 39.2 °F 71% 30.28 in 10.0 mi ENE 16.1 mph 31.1 mph N/A   Overcast
9:35 AM 48.2 °F - 39.2 °F 71% 30.29 in 10.0 mi NE 16.1 mph 23.0 mph N/A   Overcast
9:55 AM 46.4 °F 38.7 °F 39.2 °F 76% 30.29 in 10.0 mi NE 20.7 mph 27.6 mph N/A   Overcast
10:15 AM 46.4 °F 39.2 °F 39.2 °F 76% 30.29 in 10.0 mi NE 18.4 mph 25.3 mph N/A   Overcast
10:35 AM 48.2 °F - 39.2 °F 71% 30.29 in 10.0 mi NNE 19.6 mph 24.2 mph N/A   Overcast
10:55 AM 48.2 °F - 39.2 °F 71% 30.28 in 10.0 mi NNE 18.4 mph 24.2 mph N/A   Overcast
11:15 AM 48.2 °F - 39.2 °F 71% 30.28 in 10.0 mi NE 13.8 mph 24.2 mph N/A   Overcast
11:35 AM 48.2 °F - 37.4 °F 66% 30.27 in 10.0 mi NE 17.3 mph 24.2 mph N/A   Overcast
11:55 AM 48.2 °F - 37.4 °F 66% 30.26 in 10.0 mi NE 18.4 mph 21.9 mph N/A   Mostly Cloudy
12:15 PM 48.2 °F - 35.6 °F 62% 30.25 in 10.0 mi NE 13.8 mph - N/A   Mostly Cloudy
12:35 PM 48.2 °F - 35.6 °F 62% 30.24 in 10.0 mi NNE 17.3 mph 27.6 mph N/A   Scattered Clouds
12:55 PM 48.2 °F - 35.6 °F 62% 30.24 in 10.0 mi NNE 18.4 mph 24.2 mph N/A   Partly Cloudy
1:15 PM 48.2 °F - 35.6 °F 62% 30.23 in 10.0 mi NNE 17.3 mph - N/A   Mostly Cloudy
1:35 PM 50.0 °F - 33.8 °F 54% 30.23 in 10.0 mi NE 15.0 mph 20.7 mph N/A   Overcast
1:55 PM 50.0 °F - 33.8 °F 54% 30.22 in 10.0 mi NE 13.8 mph 23.0 mph N/A   Overcast
2:15 PM 51.8 °F - 33.8 °F 50% 30.22 in 10.0 mi NE 15.0 mph - N/A   Overcast
2:35 PM 51.8 °F - 33.8 °F 50% 30.22 in 10.0 mi NE 9.2 mph 20.7 mph N/A   Overcast
2:55 PM 51.8 °F - 33.8 °F 50% 30.21 in 10.0 mi NNE 18.4 mph 25.3 mph N/A   Overcast
3:15 PM 51.8 °F - 35.6 °F 54% 30.21 in 10.0 mi NE 16.1 mph - N/A   Overcast
3:35 PM 50.0 °F - 33.8 °F 54% 30.22 in 10.0 mi NE 12.7 mph 20.7 mph N/A   Overcast
3:55 PM 50.0 °F - 33.8 °F 54% 30.22 in 10.0 mi NE 12.7 mph 17.3 mph N/A   Overcast
4:15 PM 50.0 °F - 33.8 °F 54% 30.22 in 10.0 mi ENE 12.7 mph - N/A   Mostly Cloudy
4:35 PM 50.0 °F - 33.8 °F 54% 30.22 in 10.0 mi ENE 9.2 mph 18.4 mph N/A   Mostly Cloudy
4:55 PM 50.0 °F - 35.6 °F 58% 30.23 in 10.0 mi ENE 8.1 mph - N/A   Scattered Clouds
5:15 PM 48.2 °F - 35.6 °F 62% 30.23 in 10.0 mi NE 9.2 mph - N/A   Mostly Cloudy
5:35 PM 48.2 °F - 35.6 °F 62% 30.23 in 10.0 mi ENE 9.2 mph - N/A   Overcast
5:55 PM 48.2 °F - 35.6 °F 62% 30.22 in 10.0 mi NE 9.2 mph - N/A   Overcast
6:15 PM 48.2 °F - 37.4 °F 66% 30.22 in 10.0 mi ENE 9.2 mph - N/A   Scattered Clouds
6:35 PM 48.2 °F - 37.4 °F 66% 30.23 in 10.0 mi ENE 10.4 mph - N/A   Mostly Cloudy
6:55 PM 48.2 °F - 35.6 °F 62% 30.23 in 10.0 mi ENE 11.5 mph - N/A   Overcast
7:15 PM 48.2 °F - 35.6 °F 62% 30.24 in 10.0 mi NE 9.2 mph - N/A   Overcast
7:35 PM 48.2 °F - 35.6 °F 62% 30.24 in 10.0 mi ENE 8.1 mph - N/A   Overcast
8:15 PM 48.2 °F - 35.6 °F 62% 30.24 in 10.0 mi NE 6.9 mph - N/A   Overcast
8:35 PM 48.2 °F - 35.6 °F 62% 30.24 in 10.0 mi ENE 10.4 mph - N/A   Overcast
8:55 PM 48.2 °F - 35.6 °F 62% 30.23 in 10.0 mi ENE 12.7 mph 16.1 mph N/A   Overcast
9:35 PM 48.2 °F - 35.6 °F 62% 30.21 in 10.0 mi ENE 11.5 mph - N/A   Overcast
9:55 PM 48.2 °F - 35.6 °F 62% 30.21 in 10.0 mi NE 4.6 mph - N/A   Overcast
10:15 PM 48.2 °F - 37.4 °F 66% 30.21 in 10.0 mi NNE 5.8 mph - N/A   Overcast
10:35 PM 48.2 °F - 35.6 °F 62% 30.21 in 10.0 mi NE 5.8 mph - N/A   Overcast
10:55 PM 46.4 °F 42.9 °F 37.4 °F 71% 30.20 in 10.0 mi NE 6.9 mph - N/A   Overcast
11:15 PM 46.4 °F 41.9 °F 37.4 °F 71% 30.20 in 10.0 mi North 9.2 mph - N/A   Mostly Cloudy
11:35 PM 44.6 °F 39.2 °F 35.6 °F 71% 30.20 in 10.0 mi North 10.4 mph - N/A   Clear
11:55 PM 44.6 °F 38.8 °F 35.6 °F 71% 30.20 in 10.0 mi North 11.5 mph - N/A   Clear